Terminal Aerodrome Forecast
Issued by NWS Boise, ID

Home | Current Version | Previous Version | Text Only | Print | Product List | Glossary On
Versions: 1 2 3 4 5 6 7 8 9 10 11 12
000
FTUS45 KBOI 301120
TAFBOI
TAF
KBOI 301120Z 3012/0112 31012KT P6SM FEW080
     FM301800 31020G30KT P6SM SCT080
     FM010300 31008KT P6SM SCT080=

USA.gov is the U.S. government's official web portal to all federal, state and local government web resources and services.